Location: Grattepanche
(49.7881°N, 2.2948°E)
Time: 05:47:48
(UTC+00:00)

Daily predictions for brighter satellites

Satellite Brightness Start Highest point End
(mag) Time Altitude Azimuth Time Altitude Azimuth Time Altitude Azimuth
ATLAS 2AS CENTAUR R/B 4.4 00:01:24 10° NW 00:04:13 26° NW 00:04:13 26° NW
SL-16 R/B 3.6 01:09:59 40° NNE 01:09:59 40° NNE 01:14:06 10° N
Cosmos 2237 Rocket 4.2 01:10:41 22° N 01:10:41 22° N 01:13:21 10° NNE
ADEOS II 4.0 01:14:32 10° NNE 01:17:15 24° ENE 01:17:15 24° ENE
SL-16 R/B 3.7 01:48:08 29° N 01:48:08 29° N 01:51:30 10° NNE
CZ-2D R/B 3.4 01:47:06 10° NNE 01:50:21 38° NNE 01:50:21 38° NNE
Resurs 1-4 Rocket 3.3 01:58:42 10° N 02:01:48 36° N 02:01:48 36° N
Cosmos 2366 rocket 4.4 02:23:31 52° NNW 02:23:31 52° NNW 02:28:25 10° N
Cosmos 1943 3.8 02:23:44 49° N 02:23:44 49° N 02:28:09 10° NNE
Cosmos 1603 4.2 02:26:52 54° N 02:26:52 54° N 02:31:29 10° NNE
Cosmos 292 Rocket 4.4 02:37:21 54° NNE 02:37:21 54° NNE 02:41:08 10° NNE
IDEFIX/ARIANE 42P 3.1 02:31:45 10° N 02:35:50 51° NNW 02:35:50 51° NNW
SL-08 R/B 4.3 02:39:14 85° SSW 02:39:26 89° W 02:45:36 10° N
ATLAS 5 CENTAUR R/B 3.3 02:40:34 24° N 02:40:34 24° N 02:43:21 10° NNE
Cosmos 2239 Rocket 4.5 02:41:02 63° SSE 02:41:59 76° E 02:48:11 10° NNE
Cosmos 2221 4.0 02:44:53 30° N 02:44:53 30° N 02:47:08 10° N
CZ-2C R/B 4.1 02:38:51 10° NNE 02:43:17 30° E 02:45:49 19° SE
Cosmos 2251 Rocket 4.0 02:38:14 10° NNW 02:43:28 58° ENE 02:48:37 10° SE
Cosmos 1000 Rocket 4.3 02:37:31 10° N 02:43:47 85° W 02:44:15 77° SSW
Cosmos 1821 Rocket 3.8 02:45:36 78° WSW 02:45:53 81° W 02:52:13 10° N
Cosmos 1500 Rocket 4.4 02:41:48 10° N 02:45:07 46° NNE 02:45:07 46° NNE
MSX 3.8 02:44:18 10° NNE 02:49:57 70° WNW 02:49:57 70° WNW
SL-16 R/B 4.0 02:55:04 21° NW 02:55:04 21° NW 02:57:26 10° NNW
Cosmos 2123 Rocket 4.1 02:46:24 10° N 02:52:38 76° ENE 02:57:13 20° SSE
FENGYUN 3A 4.2 02:48:07 10° NNE 02:53:26 54° E 02:55:11 38° SSE
ADEOS II 2.8 02:54:02 10° N 02:58:10 41° NW 02:58:10 41° NW
Cosmos 1140 Rocket 4.0 02:55:41 10° NNW 03:00:49 57° ENE 03:05:57 10° SE
Sich 1 3.7 02:58:07 10° N 03:02:21 52° ENE 03:04:07 31° SE
Cosmos 1697 Rocket 3.9 02:57:14 10° NNW 03:02:35 41° NE 03:07:54 10° ESE
Cosmos 44 3.5 03:03:53 54° N 03:03:53 54° N 03:07:29 10° NE
Cosmos 1933 4.5 03:05:12 36° N 03:05:12 36° N 03:07:45 10° N
Cosmos 1782 3.8 03:11:05 39° N 03:11:05 39° N 03:13:44 10° N
IRS-1D 3.5 03:04:32 10° NNE 03:09:54 78° WNW 03:10:32 67° SW
Cosmos 1934 Rocket 4.0 03:08:36 34° S 03:11:37 83° E 03:18:00 10° N
CBERS-1 4.2 03:06:36 10° NNE 03:11:44 70° ESE 03:13:27 41° S
Cosmos 1605 Rocket 4.5 03:08:56 12° SSE 03:14:28 56° E 03:20:25 10° NNE
CZ-2C R/B 3.3 03:18:59 10° SE 03:24:01 54° ENE 03:29:12 10° N
Cosmos 1932 4.4 03:25:13 46° WSW 03:27:13 74° NW 03:33:43 10° NE
Cosmos 1812 3.8 03:31:34 32° NNW 03:31:34 32° NNW 03:34:04 10° N
Cosmos 1340 4.2 03:32:42 25° NNW 03:32:42 25° NNW 03:34:40 10° N
PAYLOAD A 4.0 03:26:59 10° NNE 03:31:45 73° ESE 03:34:35 25° S
CZ-2D R/B 3.8 03:28:22 10° NNW 03:31:39 18° NW 03:31:39 18° NW
SL-16 R/B 4.4 03:30:01 10° NW 03:32:08 12° NNW 03:34:27 10° N
Cosmos 407 Rocket 3.4 03:28:04 10° NNW 03:33:24 89° WSW 03:38:45 10° SSE
Tiangong 0.7 03:38:03 10° SSE 03:38:03 10° SSE 03:38:05 10° SSE
BREEZE-M DEB (TANK) 1.9 03:41:11 62° SE 03:41:11 62° SE 03:45:11 10° ESE
Cosmos 1980 Rocket 3.5 03:35:48 10° NNW 03:41:06 41° NE 03:46:22 10° ESE
Lacrosse 4 Rocket 4.4 03:39:33 10° N 03:41:38 13° NNE 03:43:43 10° ENE
Meteor 1-14 Rocket 4.2 03:35:46 10° NNW 03:41:41 69° W 03:47:29 10° S
EO 1 Del DPAF 4.0 03:38:36 10° N 03:40:49 33° NNW 03:40:49 33° NNW
Cosmos 1656 3.6 03:36:11 10° NW 03:41:49 61° WSW 03:47:24 10° SSE
ALOS 2.2 03:37:46 10° N 03:42:26 71° WNW 03:44:08 38° SW
X-37B 2.9 03:43:15 15° SSE 03:43:15 15° SSE 03:44:36 10° ESE
Resurs 1-4 Rocket 4.0 03:40:16 10° NNW 03:42:53 14° NW 03:42:53 14° NW
Helios 1B rocket 2.3 03:49:13 10° NNE 03:53:19 87° W 03:55:38 25° SSW
Meteor 1-5 Rocket 4.4 03:48:47 10° NNW 03:53:55 44° W 03:57:32 18° SSW
Cosmos 1805 Rocket 3.9 03:49:47 10° NNW 03:53:56 40° W 03:54:17 39° WSW
ARIANE 5 R/B 2.6 03:49:55 10° NNE 03:55:00 74° ESE 04:00:00 10° S
Meteor 1-11 Rocket 4.0 03:52:34 10° N 03:58:35 78° ENE 04:04:32 10° SSE
SL-08 R/B 3.3 03:57:49 10° SSE 04:02:27 84° ENE 04:07:12 10° NNW
Cosmos 1633 Rocket 3.0 03:59:04 10° N 04:03:26 88° ENE 04:07:47 10° S
Cosmos 1484 Rocket 3.0 04:03:45 10° NNE 04:07:44 73° ESE 04:11:42 10° S
USA 306 3.9 04:05:17 19° SSW 04:07:46 37° SE 04:11:36 10° ENE
Cosmos 676 Rocket 4.1 04:04:38 10° NNW 04:09:52 77° ENE 04:15:06 10° SSE
Cosmos 1666 Rocket 3.5 04:08:46 10° NNW 04:13:11 62° W 04:17:35 10° S
Cosmos 2098 Rocket 1.8 04:10:19 10° NNW 04:13:14 70° W 04:16:07 10° S
ERS-1 4.5 04:08:57 10° NNE 04:14:10 84° WNW 04:19:22 10° SSW
Cosmos 2360 4.1 04:08:59 10° NNW 04:14:41 69° WSW 04:20:19 10° SSE
IDEFIX/ARIANE 42P 4.4 04:13:10 10° NNW 04:15:38 13° NW 04:16:37 13° WNW
Cosmos 1624 Rocket 4.3 04:12:14 10° SSW 04:17:30 73° ESE 04:22:50 10° NNE
Meteor 1-4 Rocket 2.6 04:14:12 10° N 04:17:49 82° ENE 04:21:28 10° SSE
Cosmos 1153 Rocket 4.4 04:12:19 10° SSW 04:18:28 82° W 04:24:43 10° N
CZ-2C R/B 4.0 04:13:01 10° NNE 04:18:47 59° E 04:24:20 10° S
Cosmos 2100 Rocket 4.3 04:15:31 10° S 04:21:35 71° E 04:27:44 10° NNE
CZ-2C R/B 2.9 04:16:50 10° N 04:21:37 43° WNW 04:25:10 16° SW
USA 234 3.8 04:15:15 10° ENE 04:21:39 55° SE 04:28:03 10° SW
Cosmos 1328 Rocket 3.5 04:17:48 10° S 04:22:10 88° WNW 04:26:35 10° N
BREEZE-M DEB (TANK) 3.4 04:20:00 19° W 04:23:23 45° SSW 04:25:57 10° SE
ATLAS 5 CENTAUR R/B 3.9 04:22:52 10° NW 04:25:34 16° N 04:28:33 10° NE
Cosmos 1833 Rocket 2.7 04:20:03 10° SSW 04:25:42 85° WNW 04:31:24 10° NNE
CZ-2C R/B 1.5 04:25:28 10° N 04:27:34 84° E 04:30:47 10° S
Envisat 3.1 04:22:35 10° NNE 04:27:43 83° ESE 04:32:47 10° SSW
USA 308 3.8 04:24:31 13° SSW 04:27:54 43° SE 04:31:51 10° ENE
Cosmos 1515 3.6 04:24:35 10° SSW 04:28:17 64° W 04:32:01 10° N
ERBS 1.8 04:28:10 25° SW 04:29:41 82° SSE 04:32:36 10° ENE
Cosmos 1371 Rocket 4.0 04:25:04 10° SSW 04:30:23 85° WNW 04:35:40 10° NNE
IRS-1C 4.3 04:25:24 10° N 04:30:35 53° WNW 04:35:45 10° SW
Cosmos 1536 2.8 04:26:50 10° NNW 04:30:52 64° W 04:34:51 10° S
Aureole 3 3.9 04:28:39 17° SW 04:31:04 32° WNW 04:34:15 10° N
PSLV R/B 4.4 04:27:56 10° NNE 04:32:13 54° E 04:36:26 10° S
COSMOS 2406 3.7 04:29:12 10° SSW 04:34:48 65° ESE 04:40:25 10° NNE
Cosmos 2082 Rocket 3.1 04:30:40 10° S 04:36:04 51° ESE 04:41:30 10° NE
YAOGAN 6 2.6 04:34:45 10° N 04:38:22 60° WNW 04:41:56 10° SSW
Sich 1 4.4 04:36:41 10° NW 04:39:34 18° W 04:40:54 16° WSW
Cosmos 1515 Rocket 3.8 04:35:47 10° S 04:40:12 76° E 04:44:40 10° NNE
Cosmos 1151 Rocket 3.6 04:36:50 10° SW 04:40:42 35° WNW 04:44:39 10° N
BREEZE M DEB (TANK) 4.5 04:22:03 15° W 04:40:59 89° S 04:46:01 10° E
Cosmos 1140 Rocket 4.5 04:38:10 10° NW 04:42:13 23° W 04:46:17 10° SSW
Cosmos 1470 Rocket 3.5 04:39:53 10° NNW 04:44:10 59° W 04:48:25 10° S
Cosmos 1697 Rocket 3.1 04:41:18 10° NW 04:46:34 41° WSW 04:51:49 10° S
Cosmos 2360 Rocket 4.4 04:44:58 10° NNW 04:49:30 24° NE 04:53:59 10° E
Cosmos 1356 4.3 04:49:23 10° SW 04:52:08 27° WNW 04:55:00 10° N
Cosmos 1346 Rocket 3.2 04:48:50 10° SW 04:52:37 41° WNW 04:56:25 10° N
BREEZE M DEB (TANK) 4.1 04:41:27 10° SW 04:54:05 54° SSE 04:57:51 10° E
Cosmos 1850 Rocket 4.3 04:48:55 10° NNW 04:54:16 74° ENE 04:59:36 10° SSE
ATLAS CENTAUR R/B 2.1 04:49:46 10° SSW 04:54:35 68° SE 04:59:26 10° NE
Cosmos 1743 3.4 04:52:36 10° NNW 04:55:59 31° W 04:59:22 10° SSW
USA 305 2.9 04:53:56 10° WSW 04:58:03 77° SSE 05:02:12 10° ENE
CZ-2C R/B 2.6 04:55:04 10° NNE 04:58:49 84° WNW 05:02:35 10° SSW
BREEZE-M DEB (TANK) 1.8 04:56:15 11° W 04:58:57 61° SSW 05:01:18 10° ESE
Tsikada Rocket 4.4 04:52:46 10° N 04:59:10 73° E 05:05:25 10° SSE
Cosmos 2056 Rocket 3.6 04:55:58 10° SW 05:00:58 53° WNW 05:06:00 10° NNE
Cosmos 1441 Rocket 3.6 05:00:10 10° SW 05:03:40 40° WNW 05:07:14 10° N
Meteor 1-27 Rocket 3.9 04:58:20 10° SSW 05:03:59 57° WNW 05:09:48 10° N
CZ-2C R/B 3.6 05:00:26 10° SW 05:04:40 25° W 05:08:59 10° NW
Cosmos 1802 Rocket 4.1 05:00:11 10° SSW 05:06:35 78° W 05:12:58 10° N
Cosmos 1939 Rocket 4.4 05:05:13 10° NNE 05:09:07 42° E 05:12:56 10° S
Spot 4 Rocket 4.2 05:06:20 10° N 05:11:19 52° WNW 05:16:17 10° SW
Cosmos 1459 Rocket 4.1 05:05:11 10° SSW 05:11:26 60° WNW 05:17:46 10° N
COSMO-SKYMED 1 2.6 05:08:17 10° S 05:12:36 67° WSW 05:16:57 10° NNW
Cosmos 1420 Rocket 4.3 05:08:09 10° SW 05:13:14 50° WNW 05:18:20 10° NNE
Meteor 1-29 3.8 05:10:32 10° N 05:13:24 28° WNW 05:16:17 10° SW
CENTAUR R/B 3.5 05:08:02 10° SSW 05:13:38 51° ESE 05:20:24 10° NE
Cosmos 2322 Rocket 3.6 05:08:21 10° NNW 05:13:47 43° NE 05:19:09 10° ESE
